Location: Saddleback Butte
(34.6776°N, 117.8050°W)
Time: 13:08:16
(UTC-07:00)

Iridium 35 - Visible Passes

Search period start: 23 July 2014 00:00
Search period end: 02 August 2014 00:00
Orbit: 776 x 779 km, 86.4° (Epoch: 23 July)

Date Brightness Start Highest point End Pass type
(mag) Time Alt. Az. Time Alt. Az. Time Alt. Az.
23 Jul 7.9 20:28:08 10° NW 20:31:20 17° W 20:34:31 10° WSW visible
26 Jul 8.6 20:30:03 10° WNW 20:31:13 11° WNW 20:32:23 10° W visible
31 Jul 8.5 05:29:19 10° E 05:30:43 11° ENE 05:32:08 10° ENE visible
